Total_Precipitation_Accumulation
0.02 0.01 0.01 0.03 0.04 0.06 0.10 0.13 0.15 0.13 0.13 0.14 0.16 0.18 0.19 0.21 0.25 0.31 0.34 0.38 0.48 0.60 0.69 0.72 0.75 0.77 0.81 0.79 0.85 0.86 0.81 0.89 0.88 0.75 0.81 0.87 0.77 0.59 0.48 0.46 0.47 0.50 0.47
0.02 0.02 0.01 0.02 0.02 0.04 0.07 0.10 0.11 0.12 0.12 0.12 0.13 0.14 0.14 0.15 0.21 0.31 0.42 0.44 0.47 0.55 0.77 0.99 1.01 1.01 0.93 0.84 0.92 0.91 0.87 1.01 0.96 0.85 0.94 0.96 0.91 0.73 0.58 0.49 0.42 0.42 0.45
0.01 0.01 0.01 0.01 0.01 0.02 0.04 0.05 0.07 0.09 0.11 0.12 0.13 0.13 0.12 0.12 0.14 0.22 0.35 0.40 0.49 0.63 0.79 0.92 1.04 1.16 1.05 0.95 0.93 0.93 0.96 1.05 1.03 0.93 0.97 1.11 1.14 0.95 0.70 0.49 0.38 0.38 0.40
0.01 0.01 0.01 0.02 0.02 0.02 0.02 0.03 0.04 0.07 0.10 0.12 0.14 0.14 0.14 0.12 0.12 0.18 0.26 0.34 0.47 0.65 0.72 0.67 0.77 1.03 1.14 1.06 0.95 0.90 0.94 0.99 0.99 1.01 1.06 1.20 1.25 1.19 0.93 0.64 0.48 0.38 0.34
0.04 0.04 0.05 0.05 0.06 0.06 0.06 0.06 0.06 0.07 0.08 0.12 0.15 0.15 0.15 0.13 0.11 0.18 0.27 0.23 0.28 0.37 0.41 0.41 0.46 0.65 0.92 1.09 1.03 0.93 0.92 0.90 0.91 1.00 1.08 1.18 1.20 1.23 1.07 0.82 0.62 0.51 0.41
0.05 0.05 0.04 0.05 0.05 0.06 0.06 0.06 0.06 0.08 0.12 0.17 0.20 0.20 0.20 0.14 0.11 0.13 0.16 0.18 0.21 0.24 0.27 0.31 0.31 0.32 0.43 0.66 0.87 0.98 1.02 0.96 0.89 0.94 1.08 1.13 1.13 1.12 1.10 0.96 0.75 0.58 0.48
0.03 0.03 0.04 0.05 0.05 0.06 0.06 0.07 0.09 0.12 0.16 0.21 0.25 0.27 0.29 0.28 0.18 0.12 0.09 0.12 0.17 0.20 0.26 0.29 0.23 0.20 0.28 0.37 0.50 0.64 0.78 0.84 0.85 0.91 0.99 1.09 1.16 1.24 1.22 1.06 0.86 0.72 0.59
0.03 0.03 0.05 0.06 0.07 0.08 0.11 0.13 0.17 0.21 0.23 0.27 0.30 0.33 0.39 0.37 0.26 0.17 0.14 0.12 0.17 0.22 0.27 0.30 0.29 0.27 0.29 0.35 0.42 0.44 0.50 0.57 0.61 0.67 0.79 0.96 1.15 1.31 1.40 1.30 1.15 0.93 0.80
0.05 0.08 0.10 0.12 0.14 0.16 0.20 0.24 0.29 0.32 0.31 0.32 0.34 0.39 0.43 0.47 0.35 0.21 0.18 0.19 0.25 0.26 0.28 0.30 0.32 0.32 0.28 0.23 0.32 0.36 0.38 0.43 0.47 0.55 0.63 0.81 1.09 1.29 1.36 1.39 1.26 1.05 0.86
0.08 0.10 0.13 0.18 0.24 0.27 0.32 0.36 0.39 0.42 0.41 0.40 0.38 0.42 0.48 0.55 0.46 0.26 0.21 0.26 0.33 0.35 0.41 0.42 0.35 0.32 0.29 0.20 0.26 0.33 0.34 0.37 0.43 0.46 0.53 0.60 0.74 1.02 1.25 1.15 1.07 0.98 0.84
0.11 0.13 0.15 0.21 0.30 0.34 0.38 0.43 0.47 0.49 0.50 0.51 0.47 0.48 0.54 0.58 0.56 0.34 0.24 0.27 0.38 0.50 0.52 0.53 0.51 0.36 0.23 0.19 0.22 0.30 0.29 0.35 0.47 0.53 0.56 0.62 0.72 0.85 1.03 1.06 0.97 0.87 0.81
0.17 0.18 0.19 0.25 0.33 0.35 0.45 0.49 0.54 0.58 0.60 0.61 0.63 0.61 0.61 0.63 0.57 0.46 0.28 0.24 0.36 0.56 0.66 0.69 0.69 0.50 0.33 0.25 0.23 0.25 0.24 0.26 0.41 0.52 0.59 0.62 0.65 0.74 0.86 0.98 0.99 0.94 0.84
0.21 0.22 0.25 0.30 0.42 0.56 0.60 0.57 0.61 0.66 0.65 0.64 0.69 0.73 0.73 0.74 0.67 0.46 0.34 0.25 0.30 0.49 0.67 0.76 0.70 0.58 0.50 0.39 0.32 0.28 0.27 0.27 0.36 0.46 0.52 0.56 0.57 0.63 0.85 1.08 1.19 1.17 1.09
0.27 0.27 0.29 0.35 0.48 0.72 0.85 0.78 0.72 0.71 0.71 0.72 0.70 0.72 0.78 0.85 0.82 0.65 0.47 0.35 0.38 0.52 0.62 0.65 0.66 0.67 0.65 0.61 0.49 0.40 0.32 0.34 0.38 0.43 0.53 0.64 0.73 0.81 0.90 1.04 1.18 1.19 1.16
0.34 0.32 0.32 0.38 0.52 0.74 0.91 0.90 0.76 0.73 0.72 0.72 0.71 0.71 0.69 0.68 0.66 0.58 0.49 0.49 0.56 0.64 0.66 0.74 0.75 0.82 0.85 0.84 0.77 0.66 0.58 0.53 0.48 0.50 0.61 0.73 0.78 0.83 0.87 0.96 1.06 1.06 0.95
0.42 0.38 0.39 0.43 0.52 0.73 0.95 1.01 0.81 0.64 0.62 0.61 0.55 0.53 0.50 0.43 0.39 0.41 0.39 0.39 0.46 0.52 0.54 0.70 0.81 0.89 0.96 0.97 0.96 0.88 0.78 0.69 0.61 0.60 0.66 0.75 0.79 0.80 0.81 0.91 0.99 0.97 0.86
0.45 0.43 0.40 0.41 0.46 0.58 0.83 1.08 1.12 0.86 0.64 0.55 0.43 0.34 0.31 0.26 0.29 0.35 0.41 0.38 0.38 0.39 0.41 0.55 0.70 0.81 0.93 0.98 0.99 0.91 0.85 0.77 0.72 0.71 0.74 0.76 0.79 0.80 0.80 0.82 0.90 0.93 0.86
0.41 0.38 0.36 0.36 0.38 0.47 0.69 0.97 1.17 1.15 0.98 0.73 0.45 0.28 0.24 0.22 0.25 0.36 0.43 0.41 0.39 0.35 0.35 0.45 0.57 0.70 0.84 0.96 1.00 0.95 0.91 0.87 0.78 0.73 0.79 0.80 0.80 0.81 0.79 0.76 0.79 0.84 0.83
0.37 0.33 0.30 0.31 0.32 0.37 0.56 0.83 1.05 1.13 1.08 0.96 0.68 0.37 0.26 0.25 0.30 0.41 0.44 0.45 0.46 0.42 0.39 0.43 0.48 0.58 0.75 0.90 0.97 1.00 0.99 0.91 0.79 0.75 0.77 0.80 0.78 0.79 0.78 0.74 0.76 0.84 0.84
0.31 0.25 0.20 0.22 0.25 0.30 0.42 0.66 0.92 1.07 1.03 0.98 0.83 0.48 0.27 0.26 0.36 0.50 0.56 0.61 0.59 0.51 0.46 0.47 0.49 0.55 0.69 0.85 0.94 0.97 1.00 0.93 0.85 0.79 0.76 0.79 0.78 0.77 0.76 0.72 0.70 0.74 0.72
0.27 0.22 0.15 0.15 0.24 0.30 0.37 0.55 0.81 0.99 0.96 0.88 0.76 0.45 0.27 0.31 0.43 0.54 0.66 0.70 0.68 0.61 0.56 0.53 0.52 0.56 0.64 0.76 0.84 0.86 0.91 0.90 0.83 0.79 0.75 0.76 0.78 0.76 0.79 0.78 0.70 0.69 0.69
0.23 0.23 0.21 0.22 0.28 0.32 0.36 0.54 0.76 0.91 0.87 0.82 0.73 0.50 0.35 0.39 0.49 0.59 0.65 0.64 0.60 0.55 0.51 0.53 0.54 0.57 0.61 0.65 0.71 0.79 0.82 0.83 0.80 0.76 0.74 0.74 0.76 0.75 0.78 0.80 0.76 0.72 0.71
0.20 0.22 0.22 0.24 0.29 0.28 0.38 0.56 0.71 0.78 0.77 0.73 0.62 0.50 0.46 0.49 0.51 0.55 0.58 0.57 0.54 0.50 0.48 0.51 0.54 0.57 0.60 0.60 0.62 0.67 0.70 0.68 0.65 0.63 0.67 0.71 0.72 0.71 0.72 0.75 0.73 0.72 0.67
0.20 0.24 0.26 0.28 0.30 0.38 0.47 0.60 0.66 0.65 0.63 0.61 0.57 0.55 0.56 0.57 0.53 0.51 0.55 0.57 0.57 0.57 0.57 0.53 0.50 0.48 0.49 0.50 0.51 0.53 0.56 0.53 0.50 0.53 0.57 0.62 0.67 0.68 0.68 0.71 0.72 0.70 0.68
0.18 0.21 0.27 0.33 0.37 0.43 0.53 0.62 0.63 0.60 0.54 0.50 0.51 0.54 0.54 0.51 0.53 0.55 0.58 0.60 0.61 0.58 0.53 0.50 0.49 0.46 0.42 0.42 0.43 0.44 0.44 0.39 0.35 0.38 0.48 0.58 0.64 0.65 0.64 0.66 0.70 0.71 0.71
0.16 0.19 0.24 0.30 0.33 0.37 0.47 0.56 0.54 0.48 0.43 0.43 0.47 0.53 0.54 0.55 0.58 0.59 0.59 0.62 0.64 0.61 0.57 0.53 0.48 0.47 0.44 0.42 0.39 0.39 0.36 0.29 0.25 0.28 0.34 0.47 0.58 0.61 0.65 0.70 0.72 0.75 0.73